Terminal Aerodrome Forecast
Issued by NWS

Home | Current Version | Previous Version | Graphics & Text | Print | Product List | Glossary On
Versions: 1 2 3 4 5 6 7 8 9 10 11 12 13 14 15
000
FTUS43 KICT 290500
TAFRSL
TAF
KRSL 290520Z 2906/3006 09008KT P6SM BKN250
     FM291200 14010KT P6SM SCT050 SCT110
     FM300500 12012KT P6SM VCTS BKN050CB=

USA.gov is the U.S. government's official web portal to all federal, state and local government web resources and services.